HAWK-7A

导读 | 豆包AI

HAWK-7A是美国HE360运营的卫星,于2023年4月15日发射,NORAD编号56191,运行在近地轨道。它主要执行射频频谱监测、信号情报收集以及交通监测任务。该卫星技术创新性显著,采用独特的水推进器进行轨道机动,是同类型卫星中技术较为先进的一颗,目前仍在轨道正常运行。

Basic Information
目录编号:
56191
目录名称:
HAWK-7A
国际标识:
2023-054P
轨道中心:
EARTH
卫星名称:
HAWK-7A
卫星全名:
--
卫星状态:
在轨 (已飞行1137 天)
发射日期:
2023-04-15 UTC
国别 :
美国 (US)
星等 :
--
Orbit Information
数据来源 国际轨道数据
星历时间: 2026-05-25T13:51:03+0800
1天前
查看轨道信息
半长轴: 6862.697km
偏心率: 0.0004861
轨道倾角: 97.274°
近地点辐角 105.929°
升交点赤经 33.165°
平近点角 254.249°
近地点: 481.224km
远地点: 487.896km
周期: 94.298分钟
每日圈数: 15.270758
Detailed Information
使用方式:
暂无
2D Orbit Map
3D Orbit Map
Orbit Altitude Analysis Chart
Orbit Inclination Analysis Chart
Orbit Comprehensive Analysis Chart
View Comprehensive Chart